SCP
-0 -0 -0 0 0 -0 -0 -0 -0 0 0 -0 -0 -0 -0 -0 -0 -0 -0 -0 -0 -0 0 -0 -0 -0 0 -0 -0 -0 -0 -0 -0 -0 -0 -0 -0 -0 -0 -0 0 -0 -0
-0 -0 0 -0 -0 -0 -0 -0 -0 -0 0 0 -0 -0 -0 -0 -0 0 0 -0 -0 -0 -0 -0 -0 -0 -0 -0 -0 -0 -0 -0 -0 -0 -0 -0 -0 -0 -0 -0 -0 -0 -0
0 0 0 -0 -0 -0 -0 -0 -0 -0 0 0 -0 -0 -0 -0 0 0 -0 -0 -0 -0 -0 -0 -0 -0 -0 -0 -0 -0 -0 -0 -0 -0 0 -0 -0 -0 -0 -0 -0 -0 -0
-0 0 0 0 -0 -0 -0 -0 -0 -0 0 0 0 -0 -0 -0 -0 -0 -0 -0 -0 -0 -0 -0 0 -0 -0 -0 -0 0 -0 0 -0 0 0 -0 -0 -0 -0 -0 -0 -0 -0
0 0 0 0 -0 -0 -0 -0 -0 -0 -0 -0 -0 -0 -0 -0 -0 -0 -0 -0 -0 -0 -0 -0 0 0 -0 -0 0 0 0 0 -0 -0 -0 -0 -0 -0 -0 -0 -0 -0 -0
0 0 0 0 0 -0 -0 0 -0 -0 -0 -0 -0 -0 -0 -0 -0 0 -0 -0 -0 -0 0 0 0 -0 -0 0 0 -0 0 0 -0 -0 0 -0 -0 -0 -0 -0 -0 -0 -0
0 0 0 0 0 0 -0 -0 0 0 -0 -0 -0 -0 -0 -0 -0 -0 -0 -0 -0 0 0 0 -0 -0 -0 -0 0 -0 0 0 -0 -0 -0 -0 -0 -0 -0 -0 -0 -0 -0
0 0 0 0 0 0 0 -0 0 0 0 -0 -0 -0 -0 -0 -0 0 -0 0 0 0 0 0 0 0 0 -0 -0 0 0 0 -0 -0 -0 -0 -0 -0 -0 -0 -0 -0 -0
0 0 0 0 0 0 0 -0 -0 -0 0 -0 -0 -0 -0 -0 0 0 0 0 0 0 0 0 0 0 0 0 -0 -0 -0 0 0 -0 -0 -0 -0 -0 -0 -0 -0 -0 -0
-0 0 0 0 0 0 0 0 0 -0 -0 -0 -0 -0 -0 0 -0 0 0 0 0 0 0 0 0 0 0 0 0 0 -0 0 -0 0 0 -0 -0 -0 -0 -0 -0 -0 0
0 0 0 0 0 0 0 0 0 0 -0 -0 -0 -0 -0 -0 -0 0 0 0 0 0 0 0 0 -0 -0 0 0 0 0 0 0 0 0 0 -0 -0 -0 -0 -0 -0 0
0 -0 0 0 0 0 0 0 0 0 0 -0 0 0 0 0 0 0 0 0 0 0 0 0 0 0 0 0 0 0 0 0 0 0 0 -0 -0 -0 -0 -0 0 -0 0
0 0 0 0 0 0 0 0 0 0 0 0 0 0 0 0 0 0 0 0 0 0 0 -0 0 0 0 0 0 0 0 0 0 0 0 -0 -0 -0 -0 -0 -0 -0 -0
0 0 -0 0 0 0 0 0 0 0 0 0 0 0 0 0 0 0 0 0 0 0 0 0 0 0 0 0 0 0 0 0 0 0 0 0 0 -0 -0 -0 -0 0 0
-0 0 0 0 0 0 0 0 0 0 0 0 0 0 0 0 0 0 0 0 0 0 0 0 0 0 0 0 0 0 0 0 0 0 0 0 0 0 -0 -0 0 0 0
0 0 -0 -0 0 0 0 0 0 0 0 0 -0 0 0 0 0 0 0 0 0 0 0 0 0 0 0 0 0 0 0 0 0 0 0 0 0 0 0 0 0 0 0
0 -0 -0 -0 -0 -0 0 0 0 0 0 0 0 -0 0 0 0 0 0 0 0 0 0 0 0 0 0 0 0 0 0 0 0 0 0 0 0 0 0 0 0 0 0
-0 -0 -0 0 -0 -0 0 -0 0 0 0 0 0 0 0 0 1 0 0 0 0 0 0 0 0 0 0 0 0 0 0 0 0 0 0 0 0 0 0 0 0 0 0
-0 -0 -0 -0 -0 -0 0 -0 0 0 0 0 0 0 0 0 1 0 0 0 0 0 0 0 0 0 -0 0 0 0 0 0 0 0 0 0 0 0 0 0 0 0 0
-0 -0 -0 -0 -0 0 -0 0 0 0 0 0 0 0 0 0 0 0 0 0 0 0 0 0 0 0 0 0 0 0 0 0 0 0 0 0 0 0 0 0 0 0 0
-0 -0 -0 -0 -0 -0 0 0 0 0 0 0 0 0 0 0 0 0 0 0 0 0 0 0 0 0 -0 0 0 0 0 0 0 0 0 0 0 0 0 0 0 0 0
-0 -0 -0 -0 -0 0 0 0 0 0 0 0 0 0 0 0 0 0 0 0 0 0 0 0 -0 0 0 -0 0 0 0 0 0 -0 0 0 0 0 0 0 0 0 0
-0 -0 -0 -0 -0 0 0 0 0 0 0 0 0 0 0 0 0 0 0 0 0 0 -0 -0 0 0 -0 0 -0 -0 -0 -0 0 0 0 0 0 0 0 0 0 0 0
-0 -0 -0 -0 0 0 0 0 0 0 -0 0 0 0 0 0 0 0 0 0 0 0 0 0 -0 -0 -0 -0 0 0 -0 -0 -0 -0 0 -0 0 0 0 0 0 0 0
-0 0 -0 -0 -0 -0 -0 0 0 0 0 0 0 0 0 0 0 0 0 0 0 0 0 0 -0 -0 -0 0 0 -0 -0 -0 -0 -0 -0 -0 0 0 0 0 0 -0 -0
-0 -0 -0 -0 -0 0 -0 0 -0 0 0 0 0 0 0 0 0 0 0 0 0 0 0 -0 0 -0 -0 -0 0 -0 0 0 -0 -0 -0 -0 0 -0 -0 -0 -0 0 -0
Wind_Speed_500mb
29 29 25 30 32 30 30 30 27 25 27 25 21 19 20 20 20 25 28 26 25 21 18 17 18 18 19 15 13 8 6 2 5 9 15 16 8 2 2 4 8 14 7
35 32 26 28 29 29 28 27 26 23 20 19 17 17 18 17 22 23 18 16 15 15 13 11 11 13 9 7 5 3 2 4 10 16 17 11 7 7 8 10 19 12 9
36 33 28 25 26 26 26 22 19 19 18 17 15 15 16 15 15 14 8 8 12 13 14 11 10 10 9 6 4 4 7 9 10 14 24 10 5 10 11 14 13 13 14
27 31 27 28 25 22 24 22 18 15 14 13 13 13 11 12 13 8 6 11 13 15 14 12 12 13 12 11 10 11 11 12 14 18 12 13 5 9 11 14 13 14 22
29 24 25 27 24 24 21 20 18 16 12 11 9 9 7 10 11 5 10 15 16 16 15 15 15 15 17 15 15 14 13 12 12 19 10 11 10 3 9 13 13 10 23
26 24 25 25 25 23 23 21 16 15 12 8 6 5 4 7 8 11 12 16 16 15 16 14 14 17 18 15 11 9 7 9 9 5 8 7 12 7 11 15 16 16 14
25 22 20 22 23 23 24 18 17 15 13 13 8 5 3 13 18 16 13 14 13 16 15 16 19 19 17 12 9 12 11 13 9 8 10 8 6 11 14 15 14 17 16
26 25 18 24 23 24 22 20 17 16 15 13 12 8 11 22 25 13 13 12 11 13 13 14 16 16 14 12 12 8 4 7 10 11 13 11 9 12 10 9 13 16 16
24 23 24 16 22 24 24 20 20 18 16 15 15 13 19 19 24 18 12 11 12 15 15 14 12 11 12 10 6 2 5 11 8 8 8 9 10 11 9 9 11 11 13
21 21 22 29 20 20 23 21 20 18 18 18 16 20 24 20 21 17 13 13 15 17 17 17 12 7 10 11 6 3 7 7 8 8 7 5 7 11 9 9 9 10 11
17 18 21 22 24 27 22 23 21 20 18 21 22 23 24 17 22 15 18 14 18 14 13 13 15 9 3 9 6 4 5 3 6 5 2 1 5 8 8 9 8 9 9
14 14 15 19 26 27 26 27 25 27 22 20 25 20 18 22 22 17 14 15 16 11 10 9 6 5 6 8 3 1 3 5 5 3 6 1 3 9 9 8 8 9 8
14 12 11 16 19 23 27 29 29 26 22 25 28 31 26 25 14 13 11 6 4 6 1 7 6 7 3 10 9 9 5 3 2 6 5 2 3 10 9 9 9 10 7
12 10 11 7 11 18 27 31 29 28 34 24 39 29 27 16 21 17 14 10 8 0 4 1 2 9 9 9 6 7 4 7 6 7 1 5 7 8 9 10 10 11 9
14 10 9 9 13 19 27 32 30 31 26 39 28 29 27 23 23 14 11 7 5 1 2 7 5 5 5 4 4 8 6 6 7 8 2 7 7 7 9 11 12 13 11
16 13 11 11 13 21 28 34 33 31 31 28 29 34 18 19 19 12 6 3 2 4 3 9 10 5 3 6 5 7 9 6 8 12 6 7 9 8 10 10 13 15 12
18 18 14 14 19 22 32 35 42 32 35 31 40 25 14 18 17 15 5 6 3 6 8 7 9 6 5 6 6 7 7 9 6 8 10 8 6 8 9 10 11 12 11
22 20 18 16 17 24 29 44 44 32 39 29 33 23 21 20 18 10 4 4 9 8 5 6 9 9 7 8 9 11 10 11 10 7 9 10 11 6 8 8 8 9 7
21 22 20 20 20 22 40 40 34 39 38 35 34 25 25 16 17 12 3 7 4 5 7 8 9 10 8 8 6 8 11 10 11 8 6 7 11 11 9 5 8 8 4
22 23 24 23 27 29 36 37 36 37 30 30 28 30 29 16 19 14 6 9 7 7 9 8 14 13 11 10 9 8 8 9 6 6 5 6 8 8 8 9 4 1 1
27 27 27 27 34 29 28 30 28 27 23 19 19 23 27 19 18 17 7 7 7 8 8 11 12 11 8 6 9 8 9 9 6 7 9 8 5 7 9 7 7 5 9
32 31 31 33 34 33 31 28 26 21 17 16 22 25 25 20 20 17 14 6 6 4 6 10 17 9 8 7 7 6 9 10 8 8 9 7 6 7 5 4 8 6 7
35 34 33 36 39 38 32 30 26 23 26 21 23 24 26 21 19 19 17 11 6 3 1 6 12 16 9 12 17 6 2 17 11 6 5 6 5 5 8 12 8 5 6
40 37 36 37 40 41 40 30 31 24 21 18 22 22 23 22 19 15 15 13 8 6 6 3 4 7 10 7 8 10 12 8 6 17 6 2 2 5 7 9 11 11 9
43 41 39 39 40 37 41 37 29 27 24 21 21 22 23 24 20 16 16 17 15 6 9 9 6 1 0 4 4 4 7 7 9 3 11 5 2 7 9 10 11 9 12
45 43 41 40 42 42 41 39 33 27 24 24 25 22 22 20 18 20 17 19 19 15 14 13 11 8 8 6 2 3 4 3 4 1 3 2 5 3 8 9 13 13 11
Wind_Direction_500mb
148 138 127 123 125 124 131 134 135 130 134 131 127 119 114 116 120 131 123 123 130 137 138 145 158 159 181 196 222 265 337 86 96 92 134 144 130 53 164 173 128 170 175
152 148 143 134 137 139 133 133 134 132 138 135 134 125 122 124 123 128 132 137 139 146 150 147 157 173 183 197 222 292 105 119 101 98 113 106 112 109 114 129 140 183 168
159 152 148 140 137 145 146 146 141 137 139 137 140 131 133 134 122 134 143 152 166 161 159 154 154 154 157 152 145 156 116 110 104 97 93 117 92 103 110 115 144 130 133
148 153 147 148 140 138 148 148 147 141 131 130 131 131 129 124 122 126 127 154 134 145 135 133 135 131 128 112 112 111 99 106 104 101 89 112 125 125 110 106 109 110 122
147 151 168 155 150 145 146 151 153 152 149 153 152 141 135 133 137 130 136 121 128 120 123 117 121 125 121 113 112 116 119 107 89 75 69 114 108 175 120 121 110 105 129
149 155 170 161 160 162 156 158 158 157 156 143 134 111 162 194 175 154 132 121 117 118 113 122 131 125 124 118 115 126 139 132 107 123 89 61 130 156 126 130 148 149 141
153 160 167 170 169 171 170 172 172 166 158 152 130 154 176 157 138 145 137 128 115 110 122 129 132 134 132 126 119 124 119 111 110 127 120 128 149 127 133 133 145 139 153
159 160 164 172 172 177 176 178 180 176 165 165 151 147 130 133 123 142 138 126 120 117 117 121 137 148 152 142 123 123 115 135 93 123 122 116 150 130 136 145 132 147 154
171 165 166 172 173 174 173 180 179 175 167 166 166 150 131 132 143 145 144 131 117 111 110 112 128 142 169 168 146 60 42 145 121 118 89 121 124 117 119 126 134 137 149
166 176 175 171 178 175 178 175 167 164 167 176 157 146 153 145 149 147 125 134 124 113 106 105 100 137 172 188 183 145 80 121 148 101 102 196 125 119 109 119 128 144 157
172 177 184 190 192 176 185 181 172 170 170 182 167 159 151 158 166 134 148 154 123 117 119 109 76 84 129 189 173 151 117 160 126 106 176 270 118 125 127 124 124 128 142
175 179 189 193 195 194 186 186 183 178 169 177 173 170 162 164 159 154 157 149 124 120 124 76 27 72 79 194 178 94 160 194 165 152 225 51 160 131 131 133 119 113 121
166 174 196 193 192 193 190 191 185 179 180 158 159 159 161 159 162 138 170 138 135 77 84 37 18 30 200 147 174 158 153 88 155 149 240 57 130 120 126 125 117 105 107
143 153 170 187 190 183 182 180 180 178 182 189 163 156 159 166 162 165 157 174 126 163 214 44 94 106 107 115 153 159 137 101 112 121 15 76 107 109 110 114 114 111 102
139 145 152 172 192 173 170 168 165 168 162 161 158 156 160 168 160 161 173 157 134 126 120 77 99 110 79 101 105 141 118 100 105 108 104 87 103 114 125 125 127 113 114
143 133 132 136 170 177 174 170 164 155 156 157 164 150 147 161 165 180 155 132 102 165 99 68 91 89 107 115 109 129 136 123 109 115 107 90 106 118 124 125 125 113 109
148 141 132 116 144 146 154 158 151 150 159 158 154 151 162 167 170 159 146 99 117 89 82 77 45 100 111 106 111 104 116 137 133 116 118 111 68 110 108 125 121 117 120
170 154 141 133 143 142 154 156 153 155 160 158 156 156 156 157 167 160 142 116 102 97 86 59 50 65 104 127 128 121 111 114 132 134 135 131 133 129 95 109 129 123 122
175 168 157 146 141 144 150 153 157 156 159 158 160 163 154 165 171 171 151 149 103 57 68 70 54 80 67 93 110 125 129 120 108 124 148 147 153 139 150 132 112 110 118
181 170 169 158 157 149 154 155 159 157 160 169 172 173 167 180 180 181 160 141 84 75 62 69 68 55 69 90 108 122 132 127 128 154 151 108 159 159 158 168 141 311 333
183 179 180 175 175 164 166 163 167 174 169 172 183 184 185 176 171 174 174 146 94 87 63 55 52 44 34 42 98 85 101 109 99 132 155 157 183 136 180 180 154 184 313
189 186 189 193 188 180 183 179 197 181 176 178 191 191 185 178 173 179 178 168 158 77 58 46 52 49 23 19 127 103 132 102 92 119 141 151 160 179 177 139 195 160 170
193 192 194 195 195 191 189 193 189 189 180 181 194 192 191 188 184 189 196 183 196 155 14 34 46 47 64 45 59 92 203 79 117 124 130 152 162 186 196 201 186 190 124
194 194 192 193 194 194 196 201 197 186 191 186 185 191 191 185 190 196 204 206 198 212 226 296 24 62 53 29 32 47 73 69 19 139 118 153 172 202 203 207 205 203 198
192 192 192 192 195 195 203 199 196 188 198 196 188 199 180 198 200 205 212 218 223 211 244 233 265 169 348 61 28 28 42 56 36 342 110 121 345 216 224 213 211 210 228
192 191 192 196 198 200 205 204 204 203 193 196 197 205 205 211 222 223 223 236 234 224 234 235 236 238 207 224 233 302 284 301 356 278 303 269 316 276 222 227 231 224 213
Wind_Speed_850mb
29 29 25 30 32 30 30 30 27 25 27 25 21 19 20 20 20 25 28 26 25 21 18 17 18 18 19 15 13 8 6 2 5 9 15 16 8 2 2 4 8 14 7
35 32 26 28 29 29 28 27 26 23 20 19 17 17 18 17 22 23 18 16 15 15 13 11 11 13 9 7 5 3 2 4 10 16 17 11 7 7 8 10 19 12 9
36 33 28 25 26 26 26 22 19 19 18 17 15 15 16 15 15 14 8 8 12 13 14 11 10 10 9 6 4 4 7 9 10 14 24 10 5 10 11 14 13 13 14
27 31 27 28 25 22 24 22 18 15 14 13 13 13 11 12 13 8 6 11 13 15 14 12 12 13 12 11 10 11 11 12 14 18 12 13 5 9 11 14 13 14 22
29 24 25 27 24 24 21 20 18 16 12 11 9 9 7 10 11 5 10 15 16 16 15 15 15 15 17 15 15 14 13 12 12 19 10 11 10 3 9 13 13 10 23
26 24 25 25 25 23 23 21 16 15 12 8 6 5 4 7 8 11 12 16 16 15 16 14 14 17 18 15 11 9 7 9 9 5 8 7 12 7 11 15 16 16 14
25 22 20 22 23 23 24 18 17 15 13 13 8 5 3 13 18 16 13 14 13 16 15 16 19 19 17 12 9 12 11 13 9 8 10 8 6 11 14 15 14 17 16
26 25 18 24 23 24 22 20 17 16 15 13 12 8 11 22 25 13 13 12 11 13 13 14 16 16 14 12 12 8 4 7 10 11 13 11 9 12 10 9 13 16 16
24 23 24 16 22 24 24 20 20 18 16 15 15 13 19 19 24 18 12 11 12 15 15 14 12 11 12 10 6 2 5 11 8 8 8 9 10 11 9 9 11 11 13
21 21 22 29 20 20 23 21 20 18 18 18 16 20 24 20 21 17 13 13 15 17 17 17 12 7 10 11 6 3 7 7 8 8 7 5 7 11 9 9 9 10 11
17 18 21 22 24 27 22 23 21 20 18 21 22 23 24 17 22 15 18 14 18 14 13 13 15 9 3 9 6 4 5 3 6 5 2 1 5 8 8 9 8 9 9
14 14 15 19 26 27 26 27 25 27 22 20 25 20 18 22 22 17 14 15 16 11 10 9 6 5 6 8 3 1 3 5 5 3 6 1 3 9 9 8 8 9 8
14 12 11 16 19 23 27 29 29 26 22 25 28 31 26 25 14 13 11 6 4 6 1 7 6 7 3 10 9 9 5 3 2 6 5 2 3 10 9 9 9 10 7
12 10 11 7 11 18 27 31 29 28 34 24 39 29 27 16 21 17 14 10 8 0 4 1 2 9 9 9 6 7 4 7 6 7 1 5 7 8 9 10 10 11 9
14 10 9 9 13 19 27 32 30 31 26 39 28 29 27 23 23 14 11 7 5 1 2 7 5 5 5 4 4 8 6 6 7 8 2 7 7 7 9 11 12 13 11
16 13 11 11 13 21 28 34 33 31 31 28 29 34 18 19 19 12 6 3 2 4 3 9 10 5 3 6 5 7 9 6 8 12 6 7 9 8 10 10 13 15 12
18 18 14 14 19 22 32 35 42 32 35 31 40 25 14 18 17 15 5 6 3 6 8 7 9 6 5 6 6 7 7 9 6 8 10 8 6 8 9 10 11 12 11
22 20 18 16 17 24 29 44 44 32 39 29 33 23 21 20 18 10 4 4 9 8 5 6 9 9 7 8 9 11 10 11 10 7 9 10 11 6 8 8 8 9 7
21 22 20 20 20 22 40 40 34 39 38 35 34 25 25 16 17 12 3 7 4 5 7 8 9 10 8 8 6 8 11 10 11 8 6 7 11 11 9 5 8 8 4
22 23 24 23 27 29 36 37 36 37 30 30 28 30 29 16 19 14 6 9 7 7 9 8 14 13 11 10 9 8 8 9 6 6 5 6 8 8 8 9 4 1 1
27 27 27 27 34 29 28 30 28 27 23 19 19 23 27 19 18 17 7 7 7 8 8 11 12 11 8 6 9 8 9 9 6 7 9 8 5 7 9 7 7 5 9
32 31 31 33 34 33 31 28 26 21 17 16 22 25 25 20 20 17 14 6 6 4 6 10 17 9 8 7 7 6 9 10 8 8 9 7 6 7 5 4 8 6 7
35 34 33 36 39 38 32 30 26 23 26 21 23 24 26 21 19 19 17 11 6 3 1 6 12 16 9 12 17 6 2 17 11 6 5 6 5 5 8 12 8 5 6
40 37 36 37 40 41 40 30 31 24 21 18 22 22 23 22 19 15 15 13 8 6 6 3 4 7 10 7 8 10 12 8 6 17 6 2 2 5 7 9 11 11 9
43 41 39 39 40 37 41 37 29 27 24 21 21 22 23 24 20 16 16 17 15 6 9 9 6 1 0 4 4 4 7 7 9 3 11 5 2 7 9 10 11 9 12
45 43 41 40 42 42 41 39 33 27 24 24 25 22 22 20 18 20 17 19 19 15 14 13 11 8 8 6 2 3 4 3 4 1 3 2 5 3 8 9 13 13 11
Wind_Direction_850mb
148 138 127 123 125 124 131 134 135 130 134 131 127 119 114 116 120 131 123 123 130 137 138 145 158 159 181 196 222 265 337 86 96 92 134 144 130 53 164 173 128 170 175
152 148 143 134 137 139 133 133 134 132 138 135 134 125 122 124 123 128 132 137 139 146 150 147 157 173 183 197 222 292 105 119 101 98 113 106 112 109 114 129 140 183 168
159 152 148 140 137 145 146 146 141 137 139 137 140 131 133 134 122 134 143 152 166 161 159 154 154 154 157 152 145 156 116 110 104 97 93 117 92 103 110 115 144 130 133
148 153 147 148 140 138 148 148 147 141 131 130 131 131 129 124 122 126 127 154 134 145 135 133 135 131 128 112 112 111 99 106 104 101 89 112 125 125 110 106 109 110 122
147 151 168 155 150 145 146 151 153 152 149 153 152 141 135 133 137 130 136 121 128 120 123 117 121 125 121 113 112 116 119 107 89 75 69 114 108 175 120 121 110 105 129
149 155 170 161 160 162 156 158 158 157 156 143 134 111 162 194 175 154 132 121 117 118 113 122 131 125 124 118 115 126 139 132 107 123 89 61 130 156 126 130 148 149 141
153 160 167 170 169 171 170 172 172 166 158 152 130 154 176 157 138 145 137 128 115 110 122 129 132 134 132 126 119 124 119 111 110 127 120 128 149 127 133 133 145 139 153
159 160 164 172 172 177 176 178 180 176 165 165 151 147 130 133 123 142 138 126 120 117 117 121 137 148 152 142 123 123 115 135 93 123 122 116 150 130 136 145 132 147 154
171 165 166 172 173 174 173 180 179 175 167 166 166 150 131 132 143 145 144 131 117 111 110 112 128 142 169 168 146 60 42 145 121 118 89 121 124 117 119 126 134 137 149
166 176 175 171 178 175 178 175 167 164 167 176 157 146 153 145 149 147 125 134 124 113 106 105 100 137 172 188 183 145 80 121 148 101 102 196 125 119 109 119 128 144 157
172 177 184 190 192 176 185 181 172 170 170 182 167 159 151 158 166 134 148 154 123 117 119 109 76 84 129 189 173 151 117 160 126 106 176 270 118 125 127 124 124 128 142
175 179 189 193 195 194 186 186 183 178 169 177 173 170 162 164 159 154 157 149 124 120 124 76 27 72 79 194 178 94 160 194 165 152 225 51 160 131 131 133 119 113 121
166 174 196 193 192 193 190 191 185 179 180 158 159 159 161 159 162 138 170 138 135 77 84 37 18 30 200 147 174 158 153 88 155 149 240 57 130 120 126 125 117 105 107
143 153 170 187 190 183 182 180 180 178 182 189 163 156 159 166 162 165 157 174 126 163 214 44 94 106 107 115 153 159 137 101 112 121 15 76 107 109 110 114 114 111 102
139 145 152 172 192 173 170 168 165 168 162 161 158 156 160 168 160 161 173 157 134 126 120 77 99 110 79 101 105 141 118 100 105 108 104 87 103 114 125 125 127 113 114
143 133 132 136 170 177 174 170 164 155 156 157 164 150 147 161 165 180 155 132 102 165 99 68 91 89 107 115 109 129 136 123 109 115 107 90 106 118 124 125 125 113 109
148 141 132 116 144 146 154 158 151 150 159 158 154 151 162 167 170 159 146 99 117 89 82 77 45 100 111 106 111 104 116 137 133 116 118 111 68 110 108 125 121 117 120
170 154 141 133 143 142 154 156 153 155 160 158 156 156 156 157 167 160 142 116 102 97 86 59 50 65 104 127 128 121 111 114 132 134 135 131 133 129 95 109 129 123 122
175 168 157 146 141 144 150 153 157 156 159 158 160 163 154 165 171 171 151 149 103 57 68 70 54 80 67 93 110 125 129 120 108 124 148 147 153 139 150 132 112 110 118
181 170 169 158 157 149 154 155 159 157 160 169 172 173 167 180 180 181 160 141 84 75 62 69 68 55 69 90 108 122 132 127 128 154 151 108 159 159 158 168 141 311 333
183 179 180 175 175 164 166 163 167 174 169 172 183 184 185 176 171 174 174 146 94 87 63 55 52 44 34 42 98 85 101 109 99 132 155 157 183 136 180 180 154 184 313
189 186 189 193 188 180 183 179 197 181 176 178 191 191 185 178 173 179 178 168 158 77 58 46 52 49 23 19 127 103 132 102 92 119 141 151 160 179 177 139 195 160 170
193 192 194 195 195 191 189 193 189 189 180 181 194 192 191 188 184 189 196 183 196 155 14 34 46 47 64 45 59 92 203 79 117 124 130 152 162 186 196 201 186 190 124
194 194 192 193 194 194 196 201 197 186 191 186 185 191 191 185 190 196 204 206 198 212 226 296 24 62 53 29 32 47 73 69 19 139 118 153 172 202 203 207 205 203 198
192 192 192 192 195 195 203 199 196 188 198 196 188 199 180 198 200 205 212 218 223 211 244 233 265 169 348 61 28 28 42 56 36 342 110 121 345 216 224 213 211 210 228
192 191 192 196 198 200 205 204 204 203 193 196 197 205 205 211 222 223 223 236 234 224 234 235 236 238 207 224 233 302 284 301 356 278 303 269 316 276 222 227 231 224 213